#S.N.C.L,B084.PB.LDD.
#year,mon,day,hour,minute,second,value
2010,3,21,21,30,48.810000,2015540
2010,3,21,22,30,48.810000,2014130
2010,3,21,23,30,48.810000,2013150
2010,3,22,0,30,48.810000,2012650
2010,3,22,1,30,48.810000,2012810
2010,3,22,2,30,48.810000,2013520
2010,3,22,3,30,48.810000,2014550
2010,3,22,4,30,48.810000,2015700
2010,3,22,5,30,48.810000,2016650
2010,3,22,6,30,48.810000,2017330
2010,3,22,7,30,48.810000,2017630
2010,3,22,8,30,48.810000,2017550
2010,3,22,9,30,48.810000,2017260
2010,3,22,10,30,48.810000,2016900
2010,3,22,11,30,48.810000,2016620
2010,3,22,12,30,48.810000,2016500
2010,3,22,13,30,48.810000,2016650
2010,3,22,14,30,48.810000,2016920
2010,3,22,15,30,48.810000,2017290
2010,3,22,16,30,48.810000,2017480
2010,3,22,17,30,48.810000,2017450
2010,3,22,18,30,48.810000,2017080
2010,3,22,19,30,48.810000,2016350
2010,3,22,20,30,48.810000,2015150
2010,3,22,21,30,48.810000,2013780
2010,3,22,22,30,48.810000,2012250
2010,3,22,23,30,48.810000,2010890
2010,3,23,0,30,48.810000,2009830
2010,3,23,1,30,48.810000,2009160
2010,3,23,2,30,48.810000,2009050
2010,3,23,3,30,48.810000,2009570
2010,3,23,4,30,48.810000,2010340
2010,3,23,5,30,48.810000,2011300
2010,3,23,6,30,48.810000,2012250
2010,3,23,7,30,48.810000,2013040
2010,3,23,8,30,48.810000,2013620
2010,3,23,9,30,48.810000,2013960
2010,3,23,10,30,48.810000,2014150
2010,3,23,11,30,48.810000,2014160
2010,3,23,12,30,48.810000,2014230
2010,3,23,13,30,48.810000,2014360
2010,3,23,14,30,48.810000,2014610
2010,3,23,15,30,48.810000,2014940
2010,3,23,16,30,48.810000,2015280
2010,3,23,17,30,48.810000,2015610
2010,3,23,18,30,48.810000,2015800
2010,3,23,19,30,48.810000,2015840
2010,3,23,20,30,48.810000,2015540
2010,3,23,21,30,48.810000,2014940
2010,3,23,22,30,48.810000,2014110
2010,3,23,23,30,48.810000,2013110
2010,3,24,0,30,48.810000,2012070
2010,3,24,1,30,48.810000,2011170
2010,3,24,2,30,48.810000,2010500
2010,3,24,3,30,48.810000,2010400
2010,3,24,4,30,48.810000,2010770
2010,3,24,5,30,48.810000,2011600
2010,3,24,6,30,48.810000,2012740
2010,3,24,7,30,48.810000,2014100
2010,3,24,8,30,48.810000,2015390
2010,3,24,9,30,48.810000,2016500
2010,3,24,10,30,48.810000,2017240
2010,3,24,11,30,48.810000,2017540
2010,3,24,12,30,48.810000,2017590
2010,3,24,13,30,48.810000,2017360
2010,3,24,14,30,48.810000,2017060
2010,3,24,15,30,48.810000,2016850
2010,3,24,16,30,48.810000,2016810
2010,3,24,17,30,48.810000,2016920
2010,3,24,18,30,48.810000,2017200
2010,3,24,19,30,48.810000,2017550
2010,3,24,20,30,48.810000,2017750
2010,3,24,21,30,48.810000,2017660
2010,3,24,22,30,48.810000,2017270
2010,3,24,23,30,48.810000,2016460
2010,3,25,0,30,48.810000,2015220
2010,3,25,1,30,48.810000,2013760
2010,3,25,2,30,48.810000,2012340
2010,3,25,3,30,48.810000,2011380
2010,3,25,4,30,48.810000,2010960
2010,3,25,5,30,48.810000,2011120
2010,3,25,6,30,48.810000,2011880
2010,3,25,7,30,48.810000,2012950
2010,3,25,8,30,48.810000,2014290
2010,3,25,9,30,48.810000,2015720
2010,3,25,10,30,48.810000,2016850
2010,3,25,11,30,48.810000,2017500
2010,3,25,12,30,48.810000,2017640
2010,3,25,13,30,48.810000,2017290
2010,3,25,14,30,48.810000,2016590
2010,3,25,15,30,48.810000,2015700
2010,3,25,16,30,48.810000,2015020
2010,3,25,17,30,48.810000,2014630
2010,3,25,18,30,48.810000,2014710
2010,3,25,19,30,48.810000,2015210
2010,3,25,20,30,48.810000,2015860
2010,3,25,21,30,48.810000,2016490
2010,3,25,22,30,48.810000,2016850
2010,3,25,23,30,48.810000,2016690
2010,3,26,0,30,48.810000,2015880
2010,3,26,1,30,48.810000,2014470
2010,3,26,2,30,48.810000,2012690
2010,3,26,3,30,48.810000,2010940
2010,3,26,4,30,48.810000,2009580
2010,3,26,5,30,48.810000,2008900
2010,3,26,6,30,48.810000,2009070
2010,3,26,7,30,48.810000,2010010
2010,3,26,8,30,48.810000,2011560
2010,3,26,9,30,48.810000,2013310
2010,3,26,10,30,48.810000,2014770
2010,3,26,11,30,48.810000,2015830
2010,3,26,12,30,48.810000,2016220
2010,3,26,13,30,48.810000,2015980
2010,3,26,14,30,48.810000,2015440
2010,3,26,15,30,48.810000,2014680
2010,3,26,16,30,48.810000,2013890
2010,3,26,17,30,48.810000,2013340
2010,3,26,18,30,48.810000,2013360
2010,3,26,19,30,48.810000,2013990
2010,3,26,20,30,48.810000,2015070
2010,3,26,21,30,48.810000,2016320
2010,3,26,22,30,48.810000,2017460
2010,3,26,23,30,48.810000,2018150
2010,3,27,0,30,48.810000,2018080
2010,3,27,1,30,48.810000,2017180
2010,3,27,2,30,48.810000,2015610
2010,3,27,3,30,48.810000,2013750
2010,3,27,4,30,48.810000,2011900
2010,3,27,5,30,48.810000,2010470
2010,3,27,6,30,48.810000,2009940
2010,3,27,7,30,48.810000,2010430
2010,3,27,8,30,48.810000,2011860
2010,3,27,9,30,48.810000,2013910
2010,3,27,10,30,48.810000,2016110
2010,3,27,11,30,48.810000,2018010
2010,3,27,12,30,48.810000,2019300
2010,3,27,13,30,48.810000,2019760
2010,3,27,14,30,48.810000,2019290
2010,3,27,15,30,48.810000,2018240
2010,3,27,16,30,48.810000,2016880
2010,3,27,17,30,48.810000,2015700
2010,3,27,18,30,48.810000,2015080
2010,3,27,19,30,48.810000,2015190
2010,3,27,20,30,48.810000,2016050
2010,3,27,21,30,48.810000,2017610
2010,3,27,22,30,48.810000,2019440
2010,3,27,23,30,48.810000,2021030
2010,3,28,0,30,48.810000,2021930
2010,3,28,1,30,48.810000,2021890
2010,3,28,2,30,48.810000,2020910
2010,3,28,3,30,48.810000,2019260
2010,3,28,4,30,48.810000,2017380
2010,3,28,5,30,48.810000,2015580
2010,3,28,6,30,48.810000,2014420
2010,3,28,7,30,48.810000,2014030
2010,3,28,8,30,48.810000,2014710
2010,3,28,9,30,48.810000,2016270
2010,3,28,10,30,48.810000,2018300
2010,3,28,11,30,48.810000,2020310
2010,3,28,12,30,48.810000,2021680
2010,3,28,13,30,48.810000,2022230
2010,3,28,14,30,48.810000,2021760
2010,3,28,15,30,48.810000,2020450
2010,3,28,16,30,48.810000,2018630
2010,3,28,17,30,48.810000,2016670
2010,3,28,18,30,48.810000,2015190
2010,3,28,19,30,48.810000,2014570
2010,3,28,20,30,48.810000,2014940
2010,3,28,21,30,48.810000,2016230
2010,3,28,22,30,48.810000,2018030
2010,3,28,23,30,48.810000,2019990
2010,3,29,0,30,48.810000,2021590
2010,3,29,1,30,48.810000,2022300
2010,3,29,2,30,48.810000,2021970
2010,3,29,3,30,48.810000,2020780
2010,3,29,4,30,48.810000,2018930
2010,3,29,5,30,48.810000,2016830
2010,3,29,6,30,48.810000,2015000
2010,3,29,7,30,48.810000,2013850
2010,3,29,8,30,48.810000,2013730
2010,3,29,9,30,48.810000,2014540
2010,3,29,10,30,48.810000,2016040
2010,3,29,11,30,48.810000,2017770
2010,3,29,12,30,48.810000,2019290
2010,3,29,13,30,48.810000,2020040
2010,3,29,14,30,48.810000,2019810
2010,3,29,15,30,48.810000,2018600
2010,3,29,16,30,48.810000,2016570
2010,3,29,17,30,48.810000,2014250
2010,3,29,18,30,48.810000,2012120
2010,3,29,19,30,48.810000,2010620
2010,3,29,20,30,48.810000,2010180
2010,3,29,21,30,48.810000,2010820
2010,3,29,22,30,48.810000,2012370
2010,3,29,23,30,48.810000,2014450
2010,3,30,0,30,48.810000,2016460
2010,3,30,1,30,48.810000,2017980
2010,3,30,2,30,48.810000,2018420
2010,3,30,3,30,48.810000,2017910
2010,3,30,4,30,48.810000,2016510
2010,3,30,5,30,48.810000,2014700
2010,3,30,6,30,48.810000,2012720
2010,3,30,7,30,48.810000,2011140
2010,3,30,8,30,48.810000,2010480
2010,3,30,9,30,48.810000,2010750
2010,3,30,10,30,48.810000,2011720
2010,3,30,11,30,48.810000,2013150
2010,3,30,12,30,48.810000,2014680
2010,3,30,13,30,48.810000,2015840
2010,3,30,14,30,48.810000,2016050
2010,3,30,15,30,48.810000,2015490
2010,3,30,16,30,48.810000,2014050
2010,3,30,17,30,48.810000,2012060
2010,3,30,18,30,48.810000,2009810
2010,3,30,19,30,48.810000,2007920
2010,3,30,20,30,48.810000,2006920
2010,3,30,21,30,48.810000,2007110
2010,3,30,22,30,48.810000,2008420
2010,3,30,23,30,48.810000,2010460
2010,3,31,0,30,48.810000,2012830
2010,3,31,1,30,48.810000,2014850
2010,3,31,2,30,48.810000,2016050
2010,3,31,3,30,48.810000,2016460
2010,3,31,4,30,48.810000,2015970
2010,3,31,5,30,48.810000,2014540
2010,3,31,6,30,48.810000,2012760
2010,3,31,7,30,48.810000,2011090
2010,3,31,8,30,48.810000,2010010
2010,3,31,9,30,48.810000,2009620
2010,3,31,10,30,48.810000,2010100
2010,3,31,11,30,48.810000,2011240
2010,3,31,12,30,48.810000,2012670
2010,3,31,13,30,48.810000,2013840
2010,3,31,14,30,48.810000,2014400
2010,3,31,15,30,48.810000,2014130
2010,3,31,16,30,48.810000,2012760
2010,3,31,17,30,48.810000,2010870
2010,3,31,18,30,48.810000,2008540
2010,3,31,19,30,48.810000,2006360
2010,3,31,20,30,48.810000,2004750
2010,3,31,21,30,48.810000,2004130
2010,3,31,22,30,48.810000,2004560
2010,3,31,23,30,48.810000,2005900
2010,4,1,0,30,48.810000,2008030
2010,4,1,1,30,48.810000,2010360
2010,4,1,2,30,48.810000,2012390
2010,4,1,3,30,48.810000,2013430
2010,4,1,4,30,48.810000,2013380
2010,4,1,5,30,48.810000,2012810
2010,4,1,6,30,48.810000,2011820
2010,4,1,7,30,48.810000,2010560
2010,4,1,8,30,48.810000,2009440
2010,4,1,9,30,48.810000,2008840
2010,4,1,10,30,48.810000,2009160
2010,4,1,11,30,48.810000,2010030
2010,4,1,12,30,48.810000,2011300
2010,4,1,13,30,48.810000,2012620
2010,4,1,14,30,48.810000,2013780
2010,4,1,15,30,48.810000,2014120
2010,4,1,16,30,48.810000,2013540
2010,4,1,17,30,48.810000,2012270
2010,4,1,18,30,48.810000,2010410
2010,4,1,19,30,48.810000,2008400
2010,4,1,20,30,48.810000,2006670
2010,4,1,21,30,48.810000,2005720
2010,4,1,22,30,48.810000,2005630
2010,4,1,23,30,48.810000,2006480
2010,4,2,0,30,48.810000,2008140
2010,4,2,1,30,48.810000,2010250
2010,4,2,2,30,48.810000,2012250
2010,4,2,3,30,48.810000,2013850
2010,4,2,4,30,48.810000,2014870
2010,4,2,5,30,48.810000,2015140
2010,4,2,6,30,48.810000,2014630
2010,4,2,7,30,48.810000,2013730
2010,4,2,8,30,48.810000,2012920
2010,4,2,9,30,48.810000,2012360
2010,4,2,10,30,48.810000,2012250
2010,4,2,11,30,48.810000,2012780
2010,4,2,12,30,48.810000,2013840
2010,4,2,13,30,48.810000,2015000
2010,4,2,14,30,48.810000,2016080
2010,4,2,15,30,48.810000,2016660
2010,4,2,16,30,48.810000,2016510
2010,4,2,17,30,48.810000,2015630
2010,4,2,18,30,48.810000,2014170
2010,4,2,19,30,48.810000,2012350
2010,4,2,20,30,48.810000,2010520
2010,4,2,21,30,48.810000,2009090
2010,4,2,22,30,48.810000,2008300
2010,4,2,23,30,48.810000,2008350
2010,4,3,0,30,48.810000,2009270
2010,4,3,1,30,48.810000,2010620
2010,4,3,2,30,48.810000,2012020
2010,4,3,3,30,48.810000,2013410
2010,4,3,4,30,48.810000,2014450
2010,4,3,5,30,48.810000,2014800
2010,4,3,6,30,48.810000,2014570
2010,4,3,7,30,48.810000,2014030
2010,4,3,8,30,48.810000,2013400
2010,4,3,9,30,48.810000,2012740
2010,4,3,10,30,48.810000,2012430
2010,4,3,11,30,48.810000,2012550
2010,4,3,12,30,48.810000,2012960
2010,4,3,13,30,48.810000,2013560
2010,4,3,14,30,48.810000,2014290
2010,4,3,15,30,48.810000,2014790
2010,4,3,16,30,48.810000,2014800
2010,4,3,17,30,48.810000,2014290
2010,4,3,18,30,48.810000,2013240
2010,4,3,19,30,48.810000,2011680
2010,4,3,20,30,48.810000,2009970
2010,4,3,21,30,48.810000,2008460
2010,4,3,22,30,48.810000,2007400
2010,4,3,23,30,48.810000,2007030
2010,4,4,0,30,48.810000,2007290
2010,4,4,1,30,48.810000,2008160
2010,4,4,2,30,48.810000,2009270
2010,4,4,3,30,48.810000,2010430
2010,4,4,4,30,48.810000,2011670
2010,4,4,5,30,48.810000,2012600
2010,4,4,6,30,48.810000,2013040
2010,4,4,7,30,48.810000,2013060
2010,4,4,8,30,48.810000,2012900
2010,4,4,9,30,48.810000,2012620
2010,4,4,10,30,48.810000,2012320
2010,4,4,11,30,48.810000,2012160
2010,4,4,12,30,48.810000,2012360
2010,4,4,13,30,48.810000,2012830
2010,4,4,14,30,48.810000,2013470
2010,4,4,15,30,48.810000,2014050
2010,4,4,16,30,48.810000,2014270
2010,4,4,17,30,48.810000,2014130
2010,4,4,18,30,48.810000,2013610
2010,4,4,19,30,48.810000,2012620
2010,4,4,20,30,48.810000,2011380
2010,4,4,21,30,48.810000,2010060
2010,4,4,22,30,48.810000,2008880
2010,4,4,23,30,48.810000,2014070
2010,4,5,0,30,48.810000,2019250
2010,4,5,1,30,48.810000,2021910
2010,4,5,2,30,48.810000,2023220
2010,4,5,3,30,48.810000,2024100
2010,4,5,4,30,48.810000,2024810
2010,4,5,5,30,48.810000,2025140
2010,4,5,6,30,48.810000,2025050
2010,4,5,7,30,48.810000,2024630
2010,4,5,8,30,48.810000,2024120
2010,4,5,9,30,48.810000,2023450
2010,4,5,10,30,48.810000,2022670
2010,4,5,11,30,48.810000,2021900
2010,4,5,12,30,48.810000,2021230
2010,4,5,13,30,48.810000,2020700
2010,4,5,14,30,48.810000,2020450
2010,4,5,15,30,48.810000,2020310
2010,4,5,16,30,48.810000,2020060
2010,4,5,17,30,48.810000,2019710
2010,4,5,18,30,48.810000,2019130
2010,4,5,19,30,48.810000,2018240
2010,4,5,20,30,48.810000,2017150
2010,4,5,21,30,48.810000,2016110
2010,4,5,22,30,48.810000,2015150
2010,4,5,23,30,48.810000,2014430
2010,4,6,0,30,48.810000,2014050
2010,4,6,1,30,48.810000,2013870
2010,4,6,2,30,48.810000,2013680
2010,4,6,3,30,48.810000,2014050
2010,4,6,4,30,48.810000,2014750
2010,4,6,5,30,48.810000,2015560
2010,4,6,6,30,48.810000,2016340
2010,4,6,7,30,48.810000,2017100
2010,4,6,8,30,48.810000,2017900
2010,4,6,9,30,48.810000,2018380
2010,4,6,10,30,48.810000,2018540
2010,4,6,11,30,48.810000,2018450
2010,4,6,12,30,48.810000,2018380
2010,4,6,13,30,48.810000,2018240
2010,4,6,14,30,48.810000,2018280
2010,4,6,15,30,48.810000,2018440
2010,4,6,16,30,48.810000,2018630
2010,4,6,17,30,48.810000,2018900
2010,4,6,18,30,48.810000,2019140
2010,4,6,19,30,48.810000,2019140
2010,4,6,20,30,48.810000,2018820
2010,4,6,21,30,48.810000,2018350
2010,4,6,22,30,48.810000,2017660
2010,4,6,23,30,48.810000,2016780
2010,4,7,0,30,48.810000,2015970
2010,4,7,1,30,48.810000,2015290
2010,4,7,2,30,48.810000,2014800
2010,4,7,3,30,48.810000,2014750
2010,4,7,4,30,48.810000,2015170
2010,4,7,5,30,48.810000,2015840
2010,4,7,6,30,48.810000,2016760
2010,4,7,7,30,48.810000,2017850
2010,4,7,8,30,48.810000,2018860
2010,4,7,9,30,48.810000,2019620
2010,4,7,10,30,48.810000,2020130
2010,4,7,11,30,48.810000,2020340
2010,4,7,12,30,48.810000,2020270
2010,4,7,13,30,48.810000,2020080
2010,4,7,14,30,48.810000,2019870
2010,4,7,15,30,48.810000,2019710
2010,4,7,16,30,48.810000,2019570
2010,4,7,17,30,48.810000,2019600
2010,4,7,18,30,48.810000,2019690
2010,4,7,19,30,48.810000,2019810
2010,4,7,20,30,48.810000,2019850
2010,4,7,21,30,48.810000,2019740
2010,4,7,22,30,48.810000,2019340
2010,4,7,23,30,48.810000,2018610
2010,4,8,0,30,48.810000,2017730
2010,4,8,1,30,48.810000,2016720
2010,4,8,2,30,48.810000,2015740
2010,4,8,3,30,48.810000,2015010
2010,4,8,4,30,48.810000,2014800
2010,4,8,5,30,48.810000,2014960
2010,4,8,6,30,48.810000,2015370
2010,4,8,7,30,48.810000,2016160
2010,4,8,8,30,48.810000,2017040
2010,4,8,9,30,48.810000,2017840
2010,4,8,10,30,48.810000,2018350
2010,4,8,11,30,48.810000,2018510
2010,4,8,12,30,48.810000,2018280
2010,4,8,13,30,48.810000,2017700
2010,4,8,14,30,48.810000,2017040
2010,4,8,15,30,48.810000,2016410
2010,4,8,16,30,48.810000,2015860
2010,4,8,17,30,48.810000,2015540
2010,4,8,18,30,48.810000,2015580
2010,4,8,19,30,48.810000,2015840
2010,4,8,20,30,48.810000,2016250
2010,4,8,21,30,48.810000,2016580
2010,4,8,22,30,48.810000,2016620
2010,4,8,23,30,48.810000,2016330
2010,4,9,0,30,48.810000,2015650
2010,4,9,1,30,48.810000,2014570
2010,4,9,2,30,48.810000,2013360
2010,4,9,3,30,48.810000,2012300
2010,4,9,4,30,48.810000,2011630
2010,4,9,5,30,48.810000,2011350
2010,4,9,6,30,48.810000,2011510
2010,4,9,7,30,48.810000,2012210
2010,4,9,8,30,48.810000,2013270
2010,4,9,9,30,48.810000,2014360
2010,4,9,10,30,48.810000,2015230
2010,4,9,11,30,48.810000,2015740
2010,4,9,12,30,48.810000,2015720
2010,4,9,13,30,48.810000,2015240
2010,4,9,14,30,48.810000,2014450
2010,4,9,15,30,48.810000,2013540
2010,4,9,16,30,48.810000,2012690
2010,4,9,17,30,48.810000,2012230
2010,4,9,18,30,48.810000,2012320
2010,4,9,19,30,48.810000,2012780
2010,4,9,20,30,48.810000,2013590
2010,4,9,21,30,48.810000,2014550
2010,4,9,22,30,48.810000,2015290
2010,4,9,23,30,48.810000,2015680
2010,4,10,0,30,48.810000,2015490
2010,4,10,1,30,48.810000,2014820
2010,4,10,2,30,48.810000,2013690
2010,4,10,3,30,48.810000,2012460
2010,4,10,4,30,48.810000,2011370
2010,4,10,5,30,48.810000,2010730
2010,4,10,6,30,48.810000,2010610
2010,4,10,7,30,48.810000,2011170
2010,4,10,8,30,48.810000,2012270
2010,4,10,9,30,48.810000,2013590
2010,4,10,10,30,48.810000,2014850
2010,4,10,11,30,48.810000,2015760
2010,4,10,12,30,48.810000,2016070
2010,4,10,13,30,48.810000,2015770
2010,4,10,14,30,48.810000,2015030
2010,4,10,15,30,48.810000,2013890
2010,4,10,16,30,48.810000,2012780
2010,4,10,17,30,48.810000,2012000
2010,4,10,18,30,48.810000,2011790
2010,4,10,19,30,48.810000,2012250
2010,4,10,20,30,48.810000,2013270
2010,4,10,21,30,48.810000,2014700
2010,4,10,22,30,48.810000,2016120
2010,4,10,23,30,48.810000,2017090
2010,4,11,0,30,48.810000,2017410
2010,4,11,1,30,48.810000,2017100
2010,4,11,2,30,48.810000,2016110
2010,4,11,3,30,48.810000,2014710
2010,4,11,4,30,48.810000,2013480
2010,4,11,5,30,48.810000,2012580
2010,4,11,6,30,48.810000,2012050
2010,4,11,7,30,48.810000,2012230
2010,4,11,8,30,48.810000,2013150
2010,4,11,9,30,48.810000,2014470
2010,4,11,10,30,48.810000,2015900
2010,4,11,11,30,48.810000,2017040
2010,4,11,12,30,48.810000,2017660
2010,4,11,13,30,48.810000,2017430
2010,4,11,14,30,48.810000,2016620
2010,4,11,15,30,48.810000,2015240
2010,4,11,16,30,48.810000,2013680
2010,4,11,17,30,48.810000,2012350
2010,4,11,18,30,48.810000,2011740
2010,4,11,19,30,48.810000,2011750
2010,4,11,20,30,48.810000,2012600
2010,4,11,21,30,48.810000,2014030
2010,4,11,22,30,48.810000,2015610
2010,4,11,23,30,48.810000,2016990
2010,4,12,0,30,48.810000,2017690
2010,4,12,1,30,48.810000,2017640
2010,4,12,2,30,48.810000,2016740
2010,4,12,3,30,48.810000,2015400
2010,4,12,4,30,48.810000,2013780
2010,4,12,5,30,48.810000,2012290
2010,4,12,6,30,48.810000,2011240
2010,4,12,7,30,48.810000,2011050
2010,4,12,8,30,48.810000,2011390
2010,4,12,9,30,48.810000,2012210
2010,4,12,10,30,48.810000,2013450
2010,4,12,11,30,48.810000,2014770
2010,4,12,12,30,48.810000,2015670
2010,4,12,13,30,48.810000,2015760
2010,4,12,14,30,48.810000,2015030
2010,4,12,15,30,48.810000,2013710
2010,4,12,16,30,48.810000,2011900
2010,4,12,17,30,48.810000,2010220
2010,4,12,18,30,48.810000,2009200
2010,4,12,19,30,48.810000,2008880
2010,4,12,20,30,48.810000,2009510
2010,4,12,21,30,48.810000,2011070
2010,4,12,22,30,48.810000,2012990
2010,4,12,23,30,48.810000,2014940
2010,4,13,0,30,48.810000,2016440
2010,4,13,1,30,48.810000,2017110
2010,4,13,2,30,48.810000,2016950
2010,4,13,3,30,48.810000,2016130
2010,4,13,4,30,48.810000,2014730
2010,4,13,5,30,48.810000,2013180
2010,4,13,6,30,48.810000,2012020
2010,4,13,7,30,48.810000,2011350
2010,4,13,8,30,48.810000,2011260
2010,4,13,9,30,48.810000,2012090
2010,4,13,10,30,48.810000,2013430
2010,4,13,11,30,48.810000,2014780
2010,4,13,12,30,48.810000,2016000
2010,4,13,13,30,48.810000,2016580
2010,4,13,14,30,48.810000,2016180
2010,4,13,15,30,48.810000,2014820
2010,4,13,16,30,48.810000,2013030
2010,4,13,17,30,48.810000,2011190
2010,4,13,18,30,48.810000,2009760
2010,4,13,19,30,48.810000,2009020
2010,4,13,20,30,48.810000,2009210
2010,4,13,21,30,48.810000,2010450
2010,4,13,22,30,48.810000,2012300
2010,4,13,23,30,48.810000,2014470
2010,4,14,0,30,48.810000,2016410
2010,4,14,1,30,48.810000,2017710
2010,4,14,2,30,48.810000,2018150
2010,4,14,3,30,48.810000,2017780
2010,4,14,4,30,48.810000,2016780
2010,4,14,5,30,48.810000,2015350
2010,4,14,6,30,48.810000,2013940
2010,4,14,7,30,48.810000,2013040
2010,4,14,8,30,48.810000,2012760
2010,4,14,9,30,48.810000,2013240
2010,4,14,10,30,48.810000,2014360
2010,4,14,11,30,48.810000,2015840
2010,4,14,12,30,48.810000,2017150
2010,4,14,13,30,48.810000,2017840
2010,4,14,14,30,48.810000,2017770
2010,4,14,15,30,48.810000,2016800
2010,4,14,16,30,48.810000,2015120
2010,4,14,17,30,48.810000,2013080
2010,4,14,18,30,48.810000,2011240
2010,4,14,19,30,48.810000,2009970
2010,4,14,20,30,48.810000,2009570
2010,4,14,21,30,48.810000,2010250
2010,4,14,22,30,48.810000,2011810
2010,4,14,23,30,48.810000,2013920
2010,4,15,0,30,48.810000,2016210
2010,4,15,1,30,48.810000,2018190
2010,4,15,2,30,48.810000,2019320
2010,4,15,3,30,48.810000,2019600
2010,4,15,4,30,48.810000,2019000
2010,4,15,5,30,48.810000,2017730
2010,4,15,6,30,48.810000,2016210
2010,4,15,7,30,48.810000,2015000
2010,4,15,8,30,48.810000,2014380
2010,4,15,9,30,48.810000,2014570
2010,4,15,10,30,48.810000,2015490
2010,4,15,11,30,48.810000,2016810
2010,4,15,12,30,48.810000,2018190
2010,4,15,13,30,48.810000,2019200
2010,4,15,14,30,48.810000,2019480
2010,4,15,15,30,48.810000,2018930
2010,4,15,16,30,48.810000,2017550
2010,4,15,17,30,48.810000,2015630
2010,4,15,18,30,48.810000,2013530
2010,4,15,19,30,48.810000,2011820
2010,4,15,20,30,48.810000,2010870
2010,4,15,21,30,48.810000,2011080
2010,4,15,22,30,48.810000,2012140
2010,4,15,23,30,48.810000,2013980
2010,4,16,0,30,48.810000,2016230
2010,4,16,1,30,48.810000,2018360
2010,4,16,2,30,48.810000,2019950
2010,4,16,3,30,48.810000,2020750
2010,4,16,4,30,48.810000,2020620
2010,4,16,5,30,48.810000,2019720
2010,4,16,6,30,48.810000,2018350
2010,4,16,7,30,48.810000,2017080
2010,4,16,8,30,48.810000,2016270
2010,4,16,9,30,48.810000,2015950
2010,4,16,10,30,48.810000,2016410
2010,4,16,11,30,48.810000,2017380
2010,4,16,12,30,48.810000,2018580
2010,4,16,13,30,48.810000,2019600
2010,4,16,14,30,48.810000,2020080
2010,4,16,15,30,48.810000,2019650
2010,4,16,16,30,48.810000,2018450
2010,4,16,17,30,48.810000,2016600
2010,4,16,18,30,48.810000,2014520
2010,4,16,19,30,48.810000,2012500
2010,4,16,20,30,48.810000,2011010
2010,4,16,21,30,48.810000,2010460
2010,4,16,22,30,48.810000,2010920
2010,4,16,23,30,48.810000,2012230
2010,4,17,0,30,48.810000,2014150
2010,4,17,1,30,48.810000,2016340
2010,4,17,2,30,48.810000,2018140
2010,4,17,3,30,48.810000,2019350
2010,4,17,4,30,48.810000,2019850
2010,4,17,5,30,48.810000,2019530
2010,4,17,6,30,48.810000,2018650
2010,4,17,7,30,48.810000,2017640
2010,4,17,8,30,48.810000,2016620
2010,4,17,9,30,48.810000,2016070
2010,4,17,10,30,48.810000,2016160
2010,4,17,11,30,48.810000,2016850
2010,4,17,12,30,48.810000,2017890
2010,4,17,13,30,48.810000,2019020
2010,4,17,14,30,48.810000,2019720
2010,4,17,15,30,48.810000,2019990
2010,4,17,16,30,48.810000,2019320
2010,4,17,17,30,48.810000,2017890
2010,4,17,18,30,48.810000,2015980
2010,4,17,19,30,48.810000,2013890
2010,4,17,20,30,48.810000,2012000
2010,4,17,21,30,48.810000,2010870
2010,4,17,22,30,48.810000,2010500
2010,4,17,23,30,48.810000,2011080
2010,4,18,0,30,48.810000,2012440
2010,4,18,1,30,48.810000,2014320
2010,4,18,2,30,48.810000,2016200
2010,4,18,3,30,48.810000,2017840
2010,4,18,4,30,48.810000,2018950
2010,4,18,5,30,48.810000,2019250
2010,4,18,6,30,48.810000,2018900
2010,4,18,7,30,48.810000,2018090
2010,4,18,8,30,48.810000,2017290
2010,4,18,9,30,48.810000,2016650
2010,4,18,10,30,48.810000,2016390
2010,4,18,11,30,48.810000,2016640
2010,4,18,12,30,48.810000,2017310
2010,4,18,13,30,48.810000,2018190
2010,4,18,14,30,48.810000,2018950
2010,4,18,15,30,48.810000,2019390
2010,4,18,16,30,48.810000,2019120
2010,4,18,17,30,48.810000,2018260
2010,4,18,18,30,48.810000,2016740
2010,4,18,19,30,48.810000,2014840
2010,4,18,20,30,48.810000,2012940
2010,4,18,21,30,48.810000,2011450
2010,4,18,22,30,48.810000,2010530
2010,4,18,23,30,48.810000,2010320
2010,4,19,0,30,48.810000,2010980
2010,4,19,1,30,48.810000,2012250
2010,4,19,2,30,48.810000,2013900
2010,4,19,3,30,48.810000,2015610
2010,4,19,4,30,48.810000,2017080
2010,4,19,5,30,48.810000,2017890
2010,4,19,6,30,48.810000,2018230
2010,4,19,7,30,48.810000,2017800
2010,4,19,8,30,48.810000,2017180
2010,4,19,9,30,48.810000,2016650
2010,4,19,10,30,48.810000,2016200
2010,4,19,11,30,48.810000,2016090
2010,4,19,12,30,48.810000,2016350
2010,4,19,13,30,48.810000,2016940
2010,4,19,14,30,48.810000,2017680
2010,4,19,15,30,48.810000,2018230
2010,4,19,16,30,48.810000,2018420
2010,4,19,17,30,48.810000,2018150
2010,4,19,18,30,48.810000,2017410
2010,4,19,19,30,48.810000,2016160
2010,4,19,20,30,48.810000,2014680
2010,4,19,21,30,48.810000,2013170
2010,4,19,22,30,48.810000,2011950
2010,4,19,23,30,48.810000,2011240
2010,4,20,0,30,48.810000,2011150
2010,4,20,1,30,48.810000,2011750
2010,4,20,2,30,48.810000,2012850
2010,4,20,3,30,48.810000,2014340
2010,4,20,4,30,48.810000,2015770
2010,4,20,5,30,48.810000,2017020
2010,4,20,6,30,48.810000,2017730
2010,4,20,7,30,48.810000,2018100
2010,4,20,8,30,48.810000,2018080
2010,4,20,9,30,48.810000,2017730
2010,4,20,10,30,48.810000,2017270
2010,4,20,11,30,48.810000,2016900
2010,4,20,12,30,48.810000,2016720
2010,4,20,13,30,48.810000,2016710
2010,4,20,14,30,48.810000,2016990
2010,4,20,15,30,48.810000,2017400
2010,4,20,16,30,48.810000,2017710
2010,4,20,17,30,48.810000,2017750
2010,4,20,18,30,48.810000,2017410
2010,4,20,19,30,48.810000,2016570